[[{"header":{"parameterUnit":"m.s-1","parameterCategory":1,"la1":30.2991,"la2":30.254,"lo1":-89.0895,"lo2":-89.0444,"dy":0.0017,"dx":0.0017,"nx":28,"ny":28,"refTime":"2025-12-02T03:00:00:Z","depth":0,"parameterNumber":2,"parameterNumberName":"U-component_of_WINDS"},"data":[0,0,0,0,0,0,0,0,0,0,0,0,0,0,0,0,0,0,0,0,0,0,0,0,0,0,0,0,0,0,0,0,0,0,0,0,0,0,0,0,0,0,0,0,0,0,0,0,0,0,0,0,0,0,0,0,0,0,0.7139,0.7139,0,0.7118,0.7118,0.7118,0.7105,0.7105,0.7105,0.7105,0.7082,0.7082,0.7081,0,0,0,0,0,0,0,0,0,0,0,0,0,0.7166,0.7166,0.7139,0.7138,0.7138,0.7118,0.7118,0.7118,0.7105,0.7105,0.7105,0.7105,0.7082,0.7082,0.7081,0,0,0,0,0,0,0,0,0,0,0,0,0,0.7151,0.7166,0.7139,0.7129,0.7128,0.7118,0.7118,0.7118,0.7105,0.7105,0.7105,0.7105,0.7083,0.7082,0.7081,0.7078,0,0,0.7079,0.7078,0,0,0,0,0,0,0,0,0.7152,0.715,0.7131,0.713,0.7129,0.7114,0.712,0.7104,0.7105,0.7114,0.7105,0.7104,0.7093,0.7091,0.7088,0.7077,0.7076,0.7079,0.7078,0.7078,0.7078,0,0,0,0,0,0,0,0.7153,0.7151,0.7131,0.7131,0.7129,0.7126,0.7124,0.7117,0.7104,0.7113,0.7112,0.711,0.7092,0.7088,0.7087,0.7076,0.7079,0.7078,0.7077,0.7077,0.7064,0.7064,0,0,0,0,0,0,0.7156,0.7152,0.7131,0.713,0.714,0.7126,0.7123,0.7119,0.7104,0.7102,0.711,0.7109,0.709,0.7088,0.7086,0.7082,0.7078,0.7077,0.7077,0.7064,0.7064,0.7064,0,0,0,0,0,0,0.7156,0.7154,0.7132,0.7141,0.7138,0.7125,0.7121,0.7119,0.7115,0.7102,0.7099,0.7108,0.709,0.7087,0.7081,0.7082,0.7077,0.7076,0.7064,0.7064,0.7064,0.7075,0,0,0,0,0,0,0.7157,0.7154,0.7153,0.7141,0.7137,0.7127,0.7121,0.7118,0.7113,0.7112,0.71,0.7097,0.7089,0.7082,0.708,0.708,0.7075,0.7063,0.7064,0.7064,0.7074,0.7075,0.7076,0,0,0,0,0,0.7158,0.7156,0.7153,0.7151,0.7135,0.7127,0.7125,0.7116,0.7114,0.7112,0.7104,0.7098,0.7082,0.7081,0.7079,0.7079,0.7063,0.7064,0.7064,0.7074,0.7075,0.7076,0,0,0,0,0,0,0.7168,0.7154,0.7151,0.7145,0.7137,0.7125,0.7123,0.7118,0.711,0.711,0.7099,0.7096,0.7091,0.7084,0.7084,0.7076,0.7072,0.7072,0.7081,0.7082,0.7083,0.7084,0.7075,0,0,0,0,0,0.717,0.7165,0.7153,0.7149,0.7146,0.7135,0.7131,0.7125,0.7117,0.7113,0.7105,0.7097,0.709,0.7085,0.7078,0.7074,0.7071,0.7073,0.7074,0.7075,0.7074,0.7072,0.7073,0.7065,0.7065,0.7065,0,0,0.7173,0.7165,0.7162,0.7151,0.7144,0.7139,0.7132,0.7127,0.7123,0.7112,0.7106,0.7099,0.709,0.7084,0.7082,0.7079,0.7076,0.7075,0.7076,0.7075,0.7073,0.7073,0.7074,0.7065,0.7065,0.7065,0,0,0.7176,0.7169,0.7166,0.716,0.715,0.7144,0.7143,0.7132,0.7127,0.7121,0.7113,0.7108,0.7097,0.709,0.7086,0.7088,0.7082,0.7086,0.7091,0.7089,0.709,0.709,0.7091,0.7092,0.7086,0.7086,0.7086,0,0.7181,0.7173,0.7165,0.716,0.7155,0.7147,0.7143,0.7137,0.7126,0.7123,0.7121,0.7107,0.7099,0.7093,0.7094,0.709,0.7089,0.7087,0.709,0.7091,0.7091,0.7092,0.7092,0.7087,0.7087,0.7087,0.7087,0,0.718,0.7174,0.7173,0.7163,0.7158,0.7154,0.7145,0.7141,0.7136,0.713,0.7124,0.7115,0.7107,0.7105,0.7099,0.7098,0.7097,0.7092,0.7088,0.7093,0.7093,0.7094,0.7088,0.7087,0.7087,0.7087,0,0,0.7187,0.7174,0.7174,0.7169,0.7159,0.7155,0.7151,0.7143,0.714,0.7133,0.7129,0.7121,0.7117,0.7112,0.7106,0.7104,0.7107,0.71,0.71,0.7102,0.7106,0.7109,0.7109,0.7104,0.7104,0.7104,0.7106,0,0.7189,0.7181,0.7174,0.7169,0.7164,0.7157,0.7153,0.7146,0.7141,0.7136,0.713,0.7124,0.7119,0.7116,0.7114,0.7107,0.7108,0.7107,0.71,0.71,0.7102,0.7109,0.7112,0.7115,0.7107,0.7107,0.7107,0,0.7189,0.7183,0.7178,0.7169,0.7167,0.7164,0.7157,0.7152,0.7145,0.7141,0.7136,0.713,0.7126,0.7122,0.7116,0.7115,0.7112,0.7109,0.7109,0.7107,0.7103,0.7108,0.7116,0.7117,0.7107,0.7107,0.7107,0,0.7196,0.7186,0.7182,0.7179,0.7168,0.7166,0.7162,0.7155,0.7151,0.7145,0.7142,0.7136,0.7132,0.7127,0.712,0.7118,0.7115,0.711,0.7111,0.7111,0.711,0.711,0.7118,0.7109,0.7109,0.7109,0.7109,0,0.7198,0.7195,0.7185,0.7182,0.7179,0.7171,0.7168,0.7163,0.7157,0.7153,0.7146,0.7143,0.7133,0.7129,0.7123,0.7119,0.7117,0.7114,0.7113,0.7115,0.7115,0.7112,0.7111,0.7109,0.7109,0.7109,0.7109,0,0.7204,0.7197,0.7192,0.7183,0.7181,0.7179,0.7171,0.7169,0.7163,0.7159,0.7157,0.7149,0.7143,0.7136,0.7128,0.7124,0.7121,0.7118,0.7123,0.7122,0.7124,0.7124,0.7129,0.7129,0.7121,0.7121,0.7121,0,0.7205,0.7203,0.7194,0.7192,0.7188,0.7183,0.718,0.7173,0.7169,0.7162,0.716,0.7154,0.7149,0.7141,0.7134,0.7128,0.7126,0.7128,0.7124,0.7127,0.7126,0.7126,0.7126,0.7128,0.7129,0.7129,0.7129,0,0.7209,0.7206,0.7202,0.7196,0.7193,0.7188,0.7183,0.7181,0.7173,0.7169,0.7164,0.716,0.7153,0.7148,0.7141,0.7136,0.7131,0.713,0.713,0.7132,0.7135,0.7133,0.7125,0.713,0.713,0.713,0.713,0.713,0.7213,0.7211,0.7205,0.72,0.7196,0.7192,0.7189,0.7184,0.7179,0.7173,0.7169,0.7164,0.7158,0.7149,0.7145,0.7141,0.7139,0.7139,0.7139,0.7139,0.7139,0.7136,0.714,0.714,0.714,0.714,0.714,0,0.7216,0.7212,0.7208,0.7202,0.7199,0.7195,0.719,0.7187,0.7183,0.7178,0.7173,0.7168,0.7163,0.7156,0.7151,0.7149,0.7147,0.7148,0.7148,0.7147,0.7142,0.7142,0.715,0.715,0.715,0.715,0.715,0.715,0.7218,0.7214,0.7211,0.7205,0.7201,0.7197,0.7194,0.7191,0.7187,0.7181,0.7177,0.7173,0.7167,0.7162,0.7157,0.7155,0.7154,0.7156,0.7153,0.7148,0.7147,0.7146,0.7147,0.7155,0.7155,0.7158,0.7158,0.7159]},{"header":{"parameterUnit":"m.s-1","parameterCategory":1,"la1":30.2991,"la2":30.254,"lo1":-89.0895,"lo2":-89.0444,"dy":0.0017,"dx":0.0017,"nx":28,"ny":28,"refTime":"2025-12-02T03:00:00:Z","depth":0,"parameterNumber":3,"parameterNumberName":"V-component_of_WINDS"},"data":[0,0,0,0,0,0,0,0,0,0,0,0,0,0,0,0,0,0,0,0,0,0,0,0,0,0,0,0,0,0,0,0,0,0,0,0,0,0,0,0,0,0,0,0,0,0,0,0,0,0,0,0,0,0,0,0,0,0,-7.0787,-7.0789,0,-7.0924,-7.0925,-7.0927,-7.0871,-7.0867,-7.0864,-7.0861,-7.0994,-7.1,-7.1007,0,0,0,0,0,0,0,0,0,0,0,0,0,-7.0472,-7.0478,-7.0787,-7.0789,-7.0791,-7.0923,-7.0925,-7.0927,-7.0871,-7.0867,-7.0863,-7.086,-7.0992,-7.0999,-7.1007,0,0,0,0,0,0,0,0,0,0,0,0,0,-7.0609,-7.048,-7.0787,-7.0779,-7.078,-7.0923,-7.0925,-7.0928,-7.0872,-7.0867,-7.0862,-7.0858,-7.0989,-7.0999,-7.1008,-7.1165,0,0,-7.1038,-7.1042,0,0,0,0,0,0,0,0,-7.0601,-7.062,-7.0778,-7.078,-7.0781,-7.0875,-7.0863,-7.1007,-7.0873,-7.0837,-7.0861,-7.0856,-7.0958,-7.097,-7.1006,-7.1171,-7.1177,-7.1039,-7.1045,-7.1049,-7.1052,0,0,0,0,0,0,0,-7.0592,-7.0614,-7.0841,-7.0781,-7.0782,-7.0766,-7.0781,-7.089,-7.0922,-7.084,-7.0836,-7.0853,-7.0957,-7.0996,-7.1008,-7.1179,-7.1039,-7.1047,-7.1053,-7.1057,-7.148,-7.1485,0,0,0,0,0,0,-7.0583,-7.0607,-7.0837,-7.0845,-7.0677,-7.0776,-7.0792,-7.085,-7.0921,-7.0928,-7.0857,-7.085,-7.0982,-7.0997,-7.1013,-7.1201,-7.1049,-7.1058,-7.1064,-7.1474,-7.1481,-7.1487,0,0,0,0,0,0,-7.0576,-7.0604,-7.0831,-7.0725,-7.0753,-7.0787,-7.0852,-7.0855,-7.0894,-7.0935,-7.0939,-7.0892,-7.0979,-7.0999,-7.1128,-7.1205,-7.1063,-7.1072,-7.1468,-7.1476,-7.1484,-7.158,0,0,0,0,0,0,-7.0568,-7.0602,-7.0664,-7.0727,-7.0759,-7.0947,-7.0857,-7.0861,-7.0912,-7.0904,-7.0968,-7.0974,-7.0977,-7.1114,-7.1138,-7.1216,-7.1079,-7.1461,-7.1472,-7.1481,-7.157,-7.159,-7.1607,0,0,0,0,0,-7.0557,-7.0684,-7.0667,-7.0695,-7.0837,-7.0951,-7.0969,-7.0972,-7.0918,-7.098,-7.1005,-7.0972,-7.1193,-7.1128,-7.1154,-7.1236,-7.1456,-7.1469,-7.148,-7.1561,-7.1586,-7.1607,0,0,0,0,0,0,-7.0626,-7.0692,-7.0674,-7.0826,-7.0884,-7.0941,-7.1019,-7.0998,-7.107,-7.1059,-7.1057,-7.1072,-7.1205,-7.1233,-7.1159,-7.1392,-7.1316,-7.1334,-7.1369,-7.1392,-7.1411,-7.1401,-7.1087,0,0,0,0,0,-7.0659,-7.0749,-7.0801,-7.0929,-7.096,-7.0985,-7.1034,-7.1032,-7.109,-7.1114,-7.1149,-7.1205,-7.1287,-7.1341,-7.1419,-7.1573,-7.1586,-7.1643,-7.1662,-7.1677,-7.1692,-7.1775,-7.1801,-7.1526,-7.1526,-7.1526,0,0,-7.0728,-7.0775,-7.0832,-7.0945,-7.0989,-7.108,-7.1005,-7.1104,-7.1171,-7.1128,-7.1253,-7.1281,-7.1343,-7.1486,-7.155,-7.1513,-7.1771,-7.1692,-7.1704,-7.1711,-7.179,-7.1816,-7.1839,-7.1534,-7.1533,-7.1531,0,0,-7.0901,-7.0946,-7.1058,-7.1105,-7.1174,-7.119,-7.1217,-7.1279,-7.1296,-7.1422,-7.1391,-7.1469,-7.1611,-7.1657,-7.1699,-7.189,-7.1861,-7.1915,-7.2012,-7.2093,-7.2115,-7.2134,-7.2202,-7.2226,-7.193,-7.193,-7.193,0,-7.0977,-7.1115,-7.1118,-7.1221,-7.1271,-7.1238,-7.1351,-7.1395,-7.1485,-7.1519,-7.1478,-7.1655,-7.1695,-7.1847,-7.1894,-7.1929,-7.1959,-7.1907,-7.2112,-7.2131,-7.2149,-7.2213,-7.2239,-7.1936,-7.1935,-7.1935,-7.1934,0,-7.1206,-7.1302,-7.1384,-7.1475,-7.1534,-7.1641,-7.1658,-7.1717,-7.1709,-7.1729,-7.1856,-7.1903,-7.199,-7.2026,-7.2018,-7.2178,-7.2153,-7.2112,-7.2036,-7.2182,-7.2242,-7.2266,-7.1945,-7.1943,-7.1941,-7.1939,0,0,-7.1425,-7.1517,-7.1547,-7.1588,-7.1662,-7.1735,-7.184,-7.1927,-7.1977,-7.204,-7.2127,-7.2248,-7.2211,-7.2259,-7.2256,-7.2327,-7.2475,-7.2277,-7.2279,-7.2312,-7.2652,-7.2682,-7.2711,-7.2456,-7.2461,-7.2465,-7.2647,0,-7.1603,-7.179,-7.1795,-7.1965,-7.2053,-7.2024,-7.2115,-7.2169,-7.219,-7.2266,-7.2288,-7.2374,-7.2319,-7.2347,-7.2417,-7.2442,-7.2543,-7.2429,-7.2535,-7.2539,-7.252,-7.2743,-7.2775,-7.2944,-7.267,-7.2674,-7.2677,0,-7.1835,-7.1909,-7.2088,-7.215,-7.2187,-7.2269,-7.2349,-7.2423,-7.2483,-7.2493,-7.2547,-7.2534,-7.2639,-7.256,-7.2704,-7.2626,-7.267,-7.2689,-7.2696,-7.2705,-7.2617,-7.2757,-7.2998,-7.3024,-7.2714,-7.2711,-7.2709,0,-7.1977,-7.212,-7.2246,-7.2282,-7.2357,-7.2415,-7.2449,-7.2505,-7.2557,-7.2626,-7.266,-7.2739,-7.2783,-7.2844,-7.2852,-7.2794,-7.2996,-7.2918,-7.3006,-7.3006,-7.3049,-7.3046,-7.33,-7.3079,-7.3078,-7.3078,-7.3077,0,-7.2175,-7.2285,-7.2311,-7.2388,-7.2511,-7.2515,-7.2636,-7.2664,-7.2714,-7.2795,-7.2774,-7.2849,-7.2855,-7.2933,-7.2939,-7.3057,-7.3076,-7.3086,-7.3087,-7.3088,-7.3087,-7.3116,-7.3104,-7.3084,-7.3083,-7.3082,-7.308,0,-7.2353,-7.2375,-7.251,-7.2571,-7.2589,-7.2677,-7.2728,-7.28,-7.282,-7.2922,-7.2946,-7.2976,-7.3066,-7.308,-7.3185,-7.3189,-7.333,-7.3318,-7.3311,-7.3309,-7.3396,-7.3387,-7.3677,-7.3715,-7.3469,-7.3471,-7.3473,0,-7.2478,-7.2563,-7.2634,-7.2688,-7.2725,-7.2812,-7.2865,-7.2873,-7.2929,-7.3005,-7.3068,-7.3156,-7.3228,-7.3372,-7.3402,-7.3481,-7.3471,-7.3567,-7.3483,-7.3482,-7.3472,-7.3467,-7.3475,-7.3583,-7.3586,-7.3588,-7.359,0,-7.2697,-7.2703,-7.2783,-7.2867,-7.2933,-7.2998,-7.306,-7.3105,-7.312,-7.3184,-7.3277,-7.3333,-7.3441,-7.3528,-7.3608,-7.364,-7.3617,-7.3616,-7.3641,-7.3643,-7.3635,-7.364,-7.3355,-7.3609,-7.3607,-7.3606,-7.3605,-7.3604,-7.2852,-7.2926,-7.2988,-7.3077,-7.3125,-7.3184,-7.3255,-7.3285,-7.3363,-7.3454,-7.3453,-7.3555,-7.3612,-7.3717,-7.3754,-7.3833,-7.3801,-7.3837,-7.3846,-7.3854,-7.3863,-7.3623,-7.3847,-7.3846,-7.3846,-7.3845,-7.3845,0,-7.3069,-7.3108,-7.319,-7.3279,-7.3349,-7.3324,-7.3391,-7.3451,-7.3542,-7.3598,-7.3669,-7.3776,-7.3861,-7.3897,-7.398,-7.4036,-7.4028,-7.4057,-7.4053,-7.406,-7.3886,-7.3857,-7.4063,-7.4063,-7.4063,-7.4063,-7.4063,-7.4062,-7.319,-7.3314,-7.3329,-7.3476,-7.3513,-7.3615,-7.3655,-7.3709,-7.3754,-7.3875,-7.3946,-7.397,-7.4019,-7.4105,-7.4181,-7.4189,-7.422,-7.4255,-7.4259,-7.4095,-7.4073,-7.4052,-7.4024,-7.4262,-7.4262,-7.4426,-7.4428,-7.4429]}]]